Regional Weather Roundup
Issued by NWS

Home | Current Version | Previous Version | Text Only | Print | Product List | Glossary On
Versions: 1 2 3 4 5 6 7 8 9 10 11 12 13 14 15 16 17 18 19 20 21 22 23 24 25 26 27 28 29 30 31 32 33 34 35 36 37 38 39 40 41 42 43 44 45 46 47 48 49 50
000
ASUS43 KFSD 192010
RWRSD

WEATHER ROUNDUP FOR SOUTH DAKOTA
NATIONAL WEATHER SERVICE SIOUX FALLS SD
300 PM CDT TUE SEP 19 2017

NOTE: "FAIR" INDICATES FEW OR NO CLOUDS BELOW 12,000 FEET WITH NO
SIGNIFICANT WEATHER AND/OR OBSTRUCTIONS TO VISIBILITY.


SDZ001>005-009-010-012>017-192100-
NORTHWEST AND NORTH CENTRAL SOUTH DAKOTA

CITY           SKY/WX    TMP DP  RH WIND       PRES   REMARKS
BUFFALO          N/A     61  48  62 NW21      29.49S
MOBRIDGE       CLOUDY    77  65  66 S14       29.43F
$$

SDZ012>016-024>037-041>051-057-063-072>074-192100-
SOUTHWEST AND SOUTH CENTRAL SOUTH DAKOTA

CITY           SKY/WX    TMP DP  RH WIND       PRES   REMARKS
RAPID CTY ARPT SUNNY     70  45  40 N13       29.51F
PIERRE         CLOUDY    80  65  59 S20G26    29.42F
CUSTER         CLOUDY    63  39  41 W28G36    29.65R
ELLSWORTH AFB  CLOUDY    70  45  40 N14       29.52S
PHILIP         CLOUDY    75  47  36 N6        29.46F
PINE RIDGE     CLOUDY    78  46  32 SE5       29.52F
SPEARFISH      FAIR      57  50  77 W12       29.61R
WINNER         FAIR      79  66  64 S23G30    29.47F
$$

SDZ004>011-016>023-039-040-192100-
NORTHEAST SOUTH DAKOTA

CITY           SKY/WX    TMP DP  RH WIND       PRES   REMARKS
ABERDEEN       CLOUDY    78  66  66 SE22G28   29.47F
WATERTOWN      CLOUDY    74  67  78 SE22G32   29.56F
BROOKINGS      CLOUDY    76  68  76 SE21G29   29.59F
SISSETON         N/A     73  66  78 SE24G32   29.56F
$$

SDZ017-020-022-023-036>040-048>070-192100-
SOUTHEAST SOUTH DAKOTA

CITY           SKY/WX    TMP DP  RH WIND       PRES   REMARKS
SIOUX FALLS    CLOUDY    81  70  69 SE21G32   29.60F
HURON          CLOUDY    79  67  66 SE22G38   29.47F
CHAMBERLAIN    CLOUDY    82  70  66 SE18G25   29.46F
MITCHELL       CLOUDY    83  67  58 SE30G39   29.50F
YANKTON        CLOUDY    82  69  64 SE22G30   29.55F
$$

ABBREVIATIONS USED IN REMARKS
   TC - TEMPERATURE IN CELSIUS
  WCI - WIND CHILL INDEX
   HX - HEAT INDEX
  VSB - VISIBILITY





USA.gov is the U.S. government's official web portal to all federal, state and local government web resources and services.